Weather History for HELX - August, 2014

Change the Weather History Date:

Monday, August 18, 2014

  Actual Average Record
Temperature  
Mean Temperature 95 °F -  
Max Temperature 107 °F 101 °F 110 °F (2015)
Min Temperature 83 °F 74 °F 75 °F (2002)
Cooling Degree Days 30    
Growing Degree Days 45 (Base 50)    
Moisture  
Dew Point 62 °F    
Average Humidity 30    
Maximum Humidity 45    
Minimum Humidity 15    
Precipitation  
Precipitation 0.00 in 0.00 in - ()
Sea Level Pressure  
Sea Level Pressure 29.66 in    
Wind  
Wind Speed 3 mph ()    
Max Wind Speed 8 mph    
Max Gust Speed -    
Visibility 6.0 miles    
Events      
Averages and records for this station are not official NWS values.
T = Trace of Precipitation, MM = Missing Value Source: Averaged Metar Reports

Daily Weather History Graph

Daily Weather History Graph

Search for Another Location

Airport or City:

Trip Planner

Search our weather history database for the weather conditions in past years. The results will help you decide how hot, cold, wet, or windy it might be!

Date:

Astronomy

Aug. 18, 2014 Rise Set
Actual Time 6:23 AM EEST 7:22 PM EEST
Civil Twilight 5:59 AM EEST 7:46 PM EEST
Nautical Twilight 5:31 AM EEST 8:14 PM EEST
Astronomical Twilight 5:02 AM EEST 8:43 PM EEST
Moon 12:22 AM EEST (8/18) 1:58 PM EEST (8/18)
Length of Visible Light 13h 46m
Length of Day
12h 58m
Last Quarter, 41% of the Moon is Illuminated
Aug 18
Last Quarter
Aug 25
New
Sep 2
First Quarter
Sep 9
Full
Sep 16
Last Quarter

Hourly Weather History & Observations

Time (EEST) Temp. Heat Index Dew Point Humidity Pressure Visibility Wind Dir Wind Speed Gust Speed Precip Events Conditions
12:00 AM 92 °F - 59 °F 23% 29.62 in 6 mi South 4.6 mph - -  
1:00 AM 91.4 °F 91.4 °F 60.8 °F 36% 29.62 in - WSW 2.3 mph - N/A   Clear
2:00 AM 89.6 °F 89.5 °F 60.8 °F 38% 29.62 in - South 1.2 mph - N/A   Clear
3:00 AM 86 °F - 60 °F 31% 29.62 in 6 mi Calm Calm - -  
3:00 AM 86.0 °F 85.4 °F 59.0 °F 40% 29.62 in - Calm Calm - N/A   Clear
4:00 AM 86.0 °F 86.6 °F 62.6 °F 45% 29.62 in - West 3.5 mph - N/A   Clear
6:00 AM 85 °F - 63 °F 38% 29.63 in 6 mi SW 3.5 mph - -  
9:00 AM 90 °F - 64 °F 33% 29.68 in 6 mi WSW 2.3 mph - -  
9:00 AM 89.6 °F 91.1 °F 64.4 °F 43% 29.68 in - WSW 2.3 mph - N/A   Clear
10:00 AM 93.2 °F 96.2 °F 66.2 °F 41% 29.71 in - SW 2.3 mph - N/A   Clear
11:00 AM 98.6 °F 102.8 °F 66.2 °F 35% 29.71 in - Calm Calm - N/A   Clear
12:00 PM 100 °F - 64 °F 22% 29.68 in 6 mi West 3.5 mph - -  
12:00 PM 100.4 °F 103.6 °F 64.4 °F 31% 29.68 in - West 3.5 mph - N/A   Clear
1:00 PM 104.0 °F 107.4 °F 64.4 °F 27% 29.68 in - West 3.5 mph - N/A   Clear
2:00 PM 104.0 °F 107.4 °F 64.4 °F 27% 29.65 in - WSW 5.8 mph - N/A   Clear
3:00 PM 107 °F - 61 °F 15% 29.63 in 6 mi West 4.6 mph - -  
3:00 PM 107.6 °F 109.7 °F 60.8 °F 22% 29.65 in - West 4.6 mph - N/A   Clear
4:00 PM 107.6 °F 109.7 °F 60.8 °F 22% 29.65 in - WNW 6.9 mph - N/A   Clear
5:00 PM 105.8 °F 107.5 °F 60.8 °F 23% 29.65 in - WNW 8.1 mph - N/A   Clear
6:00 PM 104 °F - 60 °F 15% 29.63 in 6 mi West 6.9 mph - -  
6:00 PM 104.0 °F 105.3 °F 60.8 °F 24% 29.65 in - West 6.9 mph - N/A   Clear
7:00 PM 100.4 °F 100.2 °F 59.0 °F 25% 29.65 in - West 5.8 mph - N/A   Clear
8:00 PM 96.8 °F 96.2 °F 59.0 °F 28% 29.68 in - WNW 3.5 mph - N/A   Clear
9:00 PM 95 °F - 61 °F 23% 29.69 in 6 mi WNW 3.5 mph - -  
9:00 PM 95.0 °F 95.2 °F 60.8 °F 32% 29.71 in - WNW 3.5 mph - N/A   Clear
10:00 PM 95.0 °F 95.2 °F 60.8 °F 32% 29.71 in - SW 2.3 mph - N/A   Clear
11:00 PM 95.0 °F 95.2 °F 60.8 °F 32% 29.74 in - North 2.3 mph - N/A   Clear